Theta_e
302 302 302 302 302 302 302 302 303 303 303 302 299 300 294 292 290 300 304 304 302 297 289 290 290 290 293 296 296 297 295 294 295 294 296 294 296 295 295 294 294 296 296 296 295 296 294 295 293 296 296 298 301 301 303 302 300 300 298 299 302 306 296 293 294 298 299 302 303 304 303 303 298 300 301 298 295 297 295 294 297 291 293 290 290 287 290
302 302 302 302 303 303 303 303 303 303 303 302 300 297 293 294 295 296 303 305 302 296 285 285 288 291 295 295 295 295 294 293 293 293 295 293 294 294 294 296 297 295 298 298 295 297 291 296 296 295 298 299 305 303 303 303 300 298 299 297 304 293 298 295 290 290 293 296 298 298 302 300 297 298 302 302 301 300 301 300 299 291 293 293 290 284 290
302 302 302 303 303 303 303 303 304 303 304 304 301 294 295 295 300 299 298 302 300 292 295 290 289 291 291 291 289 291 293 296 296 296 295 297 296 295 295 296 298 296 298 297 299 298 296 295 300 297 300 301 305 305 305 302 301 301 304 304 305 297 298 296 288 284 282 282 283 287 290 296 301 301 299 301 299 299 298 291 294 288 295 295 290 289 292
303 303 303 303 303 303 304 304 304 304 303 303 301 296 296 295 285 293 296 299 298 298 301 298 293 291 291 288 291 293 292 294 297 297 297 298 298 297 296 297 298 296 297 296 297 296 299 297 297 298 300 302 304 305 305 304 303 308 310 307 306 300 302 299 297 291 288 290 295 300 299 298 295 298 299 299 301 301 304 298 292 289 295 291 297 296 290
303 303 303 303 303 303 303 304 304 304 304 303 301 298 297 297 289 288 287 297 297 297 299 296 296 290 294 286 293 291 292 293 294 299 294 298 298 297 296 295 295 297 297 296 295 297 296 299 298 297 299 302 304 306 305 308 308 307 305 308 304 302 296 298 298 296 296 297 298 300 300 298 297 297 297 298 299 301 301 293 291 300 293 288 297 297 291
302 302 302 303 303 303 304 304 304 304 304 304 302 296 299 290 294 298 300 291 288 290 292 296 293 292 293 291 293 291 291 292 290 297 298 298 298 293 296 297 297 298 297 298 294 296 296 297 295 300 301 301 303 303 306 304 307 305 304 308 304 300 293 297 299 295 297 298 299 301 300 299 299 299 299 298 300 300 299 298 299 301 291 291 298 298 294
302 302 303 303 304 304 304 304 304 304 303 304 302 296 299 300 298 300 304 292 296 294 295 293 289 290 290 290 291 289 290 289 293 294 294 294 297 297 290 296 297 298 299 298 296 296 292 293 301 300 300 301 301 300 301 304 306 305 305 306 307 301 295 297 299 296 297 297 298 299 298 298 298 298 298 300 301 300 300 300 302 302 300 301 299 298 294
302 302 303 303 304 304 304 304 304 304 302 305 302 300 297 299 298 295 301 300 297 295 292 290 289 288 294 287 291 291 291 291 292 294 292 289 293 296 294 296 299 299 299 299 296 297 298 300 296 304 303 302 303 300 301 299 304 304 303 304 304 301 292 298 299 295 294 296 297 298 298 297 295 296 298 299 299 299 300 300 300 301 299 299 295 290 286
302 302 303 303 303 304 304 304 304 303 303 304 302 300 302 301 300 301 298 294 295 293 292 290 289 287 292 291 293 293 294 292 293 290 294 293 294 296 295 298 299 300 298 300 299 300 304 303 303 305 303 297 300 300 300 303 299 302 302 304 303 302 294 299 298 291 291 296 296 296 296 296 293 291 294 295 296 294 295 294 298 298 293 292 291 287 284
302 302 302 302 303 304 304 305 304 303 302 303 302 298 304 303 305 305 301 292 295 293 294 294 291 286 292 293 294 294 294 296 295 288 294 296 297 296 296 300 300 299 299 297 298 302 302 302 303 303 302 303 302 302 301 303 301 301 301 304 300 300 296 293 294 290 288 295 297 296 297 295 291 288 290 294 295 295 296 297 298 298 296 290 289 288 290
302 302 302 302 303 303 304 304 305 303 305 301 300 300 302 299 299 302 302 291 291 296 294 294 291 295 295 295 294 296 295 296 296 291 288 296 297 300 299 301 299 297 297 298 302 304 304 304 305 306 304 303 302 303 303 302 302 303 302 301 301 301 299 295 299 289 289 294 295 297 291 285 286 292 295 295 295 295 292 292 294 297 298 297 298 293 291
302 302 302 302 302 303 303 304 304 304 303 305 303 301 303 302 302 303 297 290 290 296 294 293 294 296 295 295 293 292 293 294 295 297 293 295 297 301 302 300 298 291 298 302 303 305 305 305 304 304 303 302 301 301 301 301 301 303 304 302 300 299 298 296 299 292 289 293 294 289 283 285 290 296 297 298 298 296 292 292 294 296 296 295 292 291 290
302 302 302 302 303 303 303 304 304 304 304 306 305 300 303 304 301 300 298 295 291 294 292 294 295 293 293 294 293 294 296 296 298 298 298 298 297 297 297 301 299 298 301 300 300 302 298 296 298 298 298 300 300 300 299 300 300 303 305 306 302 296 295 296 294 295 293 290 290 281 283 287 293 294 297 299 299 297 295 290 292 294 294 294 291 291 291
302 302 302 303 303 303 304 304 304 304 304 305 304 304 303 303 302 302 300 293 289 294 295 293 294 294 294 294 294 295 297 297 298 299 296 299 297 296 298 298 299 302 302 302 301 301 297 297 291 293 294 296 296 295 297 299 300 300 301 303 304 302 300 296 292 296 287 289 288 284 286 288 288 290 292 296 293 295 294 286 287 292 294 294 291 291 290
302 302 302 303 303 304 304 304 304 304 304 304 305 304 303 303 302 301 301 297 290 293 295 289 293 295 295 295 296 295 296 297 296 295 298 300 297 298 299 299 301 300 302 299 298 300 296 293 290 289 290 289 285 287 296 293 299 301 302 302 304 304 296 298 292 289 293 288 285 285 284 283 286 292 297 299 300 299 299 293 286 293 293 294 292 290 289
302 302 303 303 303 304 304 304 305 305 305 304 305 304 303 305 303 302 301 298 296 289 292 296 296 297 297 296 298 297 294 293 296 297 297 297 297 299 301 303 304 304 301 300 300 296 294 290 288 288 286 286 290 290 288 294 293 298 302 302 303 302 303 300 294 290 291 289 286 285 283 285 292 294 297 299 301 302 301 295 286 292 293 293 292 290 291
302 302 303 303 304 304 304 305 305 305 305 305 304 304 303 306 303 301 301 299 299 292 299 298 299 299 299 297 299 297 298 294 298 293 293 295 296 298 300 304 308 306 301 301 299 295 292 290 293 289 287 292 288 288 293 292 289 291 297 300 299 298 296 295 292 289 290 289 287 286 286 284 292 296 297 299 302 301 298 285 285 292 294 294 293 291 291
302 302 303 303 304 304 304 305 305 306 306 306 305 304 304 307 306 305 302 301 297 297 300 301 299 299 296 298 298 298 301 299 298 299 296 297 298 297 298 301 299 302 305 296 297 292 291 290 288 288 287 293 293 294 286 292 288 289 291 289 290 291 291 293 289 291 289 288 288 287 285 291 296 296 299 300 302 298 287 284 290 295 296 296 295 293 292
302 302 303 303 303 304 305 305 306 306 307 306 307 306 305 308 307 306 303 301 302 294 300 302 303 302 302 304 302 301 301 300 300 293 293 293 297 298 299 299 301 295 300 295 297 291 290 289 295 293 289 290 295 288 291 289 287 291 292 288 289 290 290 290 292 289 288 289 287 286 288 292 297 298 300 302 295 285 285 294 300 298 296 297 296 293 293
302 302 303 303 303 304 305 306 306 306 307 306 307 306 307 308 307 306 302 301 302 298 299 299 301 300 303 302 301 299 300 300 300 297 295 292 300 301 298 294 299 300 297 299 290 295 291 289 291 295 291 292 293 294 289 287 292 290 291 292 290 291 288 287 288 288 289 289 286 284 281 289 299 299 298 299 290 291 296 298 299 300 297 297 296 295 295
302 302 303 303 304 305 305 305 306 306 306 306 306 306 303 307 307 307 306 304 303 297 298 302 302 301 301 301 303 302 302 300 301 298 298 300 302 300 289 290 296 297 292 294 289 290 292 290 292 292 296 294 292 294 288 287 289 292 292 293 292 293 289 288 289 289 286 286 284 284 290 294 299 299 291 296 298 300 301 300 296 298 297 296 296 297 297
302 302 303 304 304 305 305 306 306 306 306 305 306 308 305 305 306 307 306 305 302 297 300 301 301 302 302 303 303 304 302 302 304 304 304 298 304 301 300 300 300 300 300 301 295 292 297 296 297 292 290 291 296 291 293 289 287 290 294 294 287 294 292 293 289 290 288 288 287 288 292 296 297 298 297 299 301 302 302 301 299 298 297 299 297 297 297
302 302 303 303 304 305 305 306 306 306 306 305 306 310 307 306 305 306 305 304 305 306 308 304 302 304 304 304 305 304 305 306 306 307 308 303 297 303 302 301 301 303 303 303 298 297 297 297 291 298 294 295 292 290 293 294 289 291 288 293 294 296 297 297 293 286 291 292 293 293 293 294 295 297 299 299 300 301 302 300 298 299 299 299 297 297 296
302 302 303 303 304 305 305 306 306 306 305 305 306 311 308 309 306 304 302 301 302 298 302 304 301 296 299 299 303 306 306 305 306 306 309 308 298 297 304 304 304 305 304 304 304 301 300 296 297 299 291 294 296 291 288 287 289 294 291 289 292 294 295 296 291 292 291 284 292 291 292 295 296 295 296 298 300 300 301 300 299 299 299 298 298 297 296
302 302 303 303 304 304 305 305 306 306 305 305 307 306 309 308 308 306 305 297 298 298 292 295 297 301 303 304 306 304 305 306 309 310 310 309 308 304 301 305 306 306 303 303 306 303 298 294 295 295 289 295 297 290 296 291 289 296 290 290 291 291 299 294 292 292 289 287 290 292 294 295 297 296 294 294 297 299 301 300 300 300 300 300 298 297 297
302 302 303 303 303 304 305 305 306 305 305 305 306 310 307 306 310 308 305 306 306 303 293 292 298 304 306 304 301 303 306 308 308 309 309 308 310 310 305 305 305 308 306 307 306 299 297 296 294 294 292 290 300 293 292 297 294 297 293 291 297 296 297 289 293 288 287 290 291 291 293 293 294 296 298 297 298 298 299 300 300 299 298 297 298 299 299
301 302 302 303 303 304 305 305 306 305 305 305 309 310 309 308 311 308 306 305 301 294 296 293 298 301 303 301 303 306 306 307 308 308 307 308 308 309 309 307 305 305 304 303 303 298 298 296 296 294 297 294 299 297 297 294 294 290 290 293 297 295 292 294 291 285 285 286 289 293 288 287 291 294 296 297 299 299 298 299 299 298 297 297 296 297 298
301 302 302 303 303 304 305 305 306 305 305 305 308 310 312 310 310 311 311 308 307 295 295 295 297 300 305 301 303 305 306 307 307 306 305 306 307 308 308 306 306 304 303 300 296 296 295 293 291 294 295 298 296 292 298 297 297 294 293 293 296 294 294 294 290 289 288 294 295 298 299 296 294 294 296 297 298 299 298 298 298 298 299 299 298 297 297
301 302 303 303 304 304 305 305 305 304 305 305 311 309 309 310 313 312 312 312 313 304 299 299 302 301 294 297 304 304 305 306 306 305 304 304 304 305 305 305 304 303 302 299 296 295 294 293 296 295 294 299 297 291 294 289 289 287 290 294 295 297 299 297 297 298 298 298 297 299 297 292 293 295 297 297 299 299 298 298 299 299 299 299 299 298 297
301 302 303 303 304 304 305 305 305 304 305 309 309 308 301 304 312 312 310 312 309 311 297 293 291 292 302 301 301 302 302 304 304 304 303 303 303 303 303 303 302 303 302 297 296 292 294 294 293 298 299 302 295 293 290 291 288 289 294 296 297 297 297 298 299 297 295 298 298 298 297 295 296 297 298 298 299 299 298 298 298 298 299 299 298 297 299
302 302 303 303 304 304 305 305 305 304 306 314 308 295 294 292 303 310 307 312 311 308 298 297 292 297 296 301 303 299 300 301 303 302 303 303 302 303 304 304 303 302 296 296 295 294 295 292 293 294 298 297 295 292 291 290 287 290 293 295 296 297 297 297 299 300 299 298 298 298 297 297 297 297 297 298 299 300 299 299 299 298 298 299 298 298 297
302 302 303 303 303 304 304 305 305 305 312 308 304 302 302 303 305 306 308 308 312 306 297 293 291 293 292 296 301 302 301 301 304 302 302 304 301 303 302 302 298 301 297 295 295 294 292 294 293 296 296 296 294 294 294 291 288 288 294 295 297 297 298 298 298 298 299 299 297 295 294 295 297 295 294 297 298 299 299 299 299 299 298 298 298 298 298
302 302 303 303 303 304 305 305 304 305 308 305 303 304 304 301 303 305 307 313 311 302 305 295 290 291 291 295 301 301 301 304 301 301 297 302 300 303 298 303 302 300 302 296 292 291 296 293 293 292 295 300 293 292 292 288 290 294 295 295 296 297 297 298 299 299 298 299 299 294 292 294 296 297 298 299 299 299 299 298 298 299 298 297 297 298 298
302 302 302 303 303 304 304 304 303 298 303 308 305 305 309 303 306 305 308 313 306 304 300 293 289 290 290 299 295 298 301 298 297 300 292 300 302 302 296 299 300 293 296 295 295 295 295 293 292 291 295 292 293 290 286 289 293 294 295 295 297 297 298 298 298 297 298 299 300 299 299 298 299 299 299 298 298 299 299 298 297 296 295 295 295 296 297
302 302 302 302 303 304 304 303 313 307 303 304 306 310 309 303 303 306 307 309 295 294 293 292 294 290 289 290 290 295 301 300 295 297 293 296 302 298 298 293 294 291 291 302 293 293 290 291 297 291 288 294 289 286 288 291 292 294 294 295 297 297 297 296 296 297 298 299 299 298 298 298 297 296 296 297 297 297 297 296 296 296 294 295 296 296 297
301 302 302 302 302 303 310 309 307 305 303 302 304 306 304 304 307 315 313 313 308 296 292 291 293 290 291 287 287 291 301 296 298 299 297 295 296 299 299 294 289 291 298 294 290 294 290 294 293 287 290 288 286 290 291 294 294 294 295 296 297 297 297 297 297 298 298 299 299 298 297 297 296 296 296 296 296 296 296 296 296 296 296 295 296 297 297
301 301 302 302 307 309 302 299 304 305 304 304 303 303 302 305 312 314 311 310 308 310 299 291 291 291 295 291 292 293 299 290 297 295 296 293 290 293 294 291 288 291 291 290 291 289 292 298 291 288 288 286 288 295 295 295 295 295 296 297 298 298 298 298 298 298 296 297 296 296 296 296 295 295 295 295 295 296 295 295 295 295 295 295 296 296 298
301 301 306 305 302 294 295 297 303 305 301 302 303 306 306 303 296 296 297 295 298 303 296 300 292 295 296 297 289 297 298 292 298 291 291 294 291 290 293 291 289 291 286 288 290 295 293 290 288 287 287 294 295 296 296 297 297 298 298 298 298 298 298 298 298 296 294 293 293 294 294 294 294 295 295 294 295 295 296 297 297 297 297 297 297 297 298
302 308 305 303 299 294 295 304 306 301 302 305 306 298 294 296 294 291 291 293 294 293 296 296 292 297 296 294 294 299 297 292 291 294 289 294 290 286 291 287 288 290 286 287 288 297 286 287 288 287 286 290 292 295 297 298 298 298 298 299 299 298 298 297 298 296 295 294 295 295 295 293 293 293 295 295 296 296 297 297 298 298 298 298 298 298 298
305 301 296 296 295 299 304 306 304 302 306 298 297 295 290 294 291 288 294 290 290 292 294 291 297 297 299 295 293 292 300 297 289 289 290 291 297 289 290 290 289 288 283 285 286 296 287 282 286 286 285 290 291 295 297 297 297 298 298 298 298 298 298 297 297 298 298 297 297 297 297 297 297 296 296 296 297 297 298 298 298 299 299 299 299 299 298
300 301 301 295 301 301 303 303 306 304 298 294 293 292 291 288 291 291 291 288 288 290 296 297 297 296 297 297 297 292 297 301 299 300 294 289 295 295 289 285 290 286 284 284 289 291 288 286 286 286 286 291 292 294 296 296 296 297 298 298 298 298 298 298 298 298 297 296 296 297 297 298 297 297 298 298 298 297 298 298 298 299 299 299 299 299 300
297 297 299 300 299 300 301 302 298 294 292 293 289 286 288 288 291 290 291 287 287 291 294 297 291 294 294 298 297 298 295 299 296 293 292 287 291 290 287 288 289 285 282 288 292 289 288 283 284 285 289 293 294 295 295 295 295 296 297 298 298 298 298 298 297 298 298 297 297 297 297 298 298 298 298 298 298 298 298 298 298 299 300 300 300 300 300
298 299 298 297 298 296 295 292 292 292 285 286 285 284 287 285 287 287 288 291 293 294 294 300 298 298 298 300 297 299 295 299 294 292 291 287 291 291 288 286 286 282 286 292 289 286 284 283 283 288 293 294 294 295 295 296 296 296 297 298 298 298 298 297 297 297 298 298 299 299 298 298 298 298 299 299 299 300 299 299 300 300 300 300 299 299 299
300 299 296 293 291 292 292 284 292 289 285 287 285 281 284 284 286 288 287 289 292 292 296 294 294 294 290 296 295 292 292 295 295 293 290 291 290 287 286 283 285 288 293 288 287 284 285 286 288 292 294 295 294 295 296 296 296 296 296 297 298 298 297 297 298 297 296 298 298 298 299 299 299 299 300 300 300 299 299 299 300 301 300 299 299 299 300
296 292 291 290 288 290 288 280 291 287 282 284 286 286 286 284 287 289 289 293 296 294 297 298 296 296 292 296 295 295 294 291 294 291 286 289 287 288 286 284 288 289 286 284 285 286 285 285 291 293 294 294 294 295 296 296 296 295 295 296 297 298 297 296 296 297 298 298 298 298 297 298 298 299 299 299 300 301 300 299 300 299 299 299 299 299 300
292 290 289 284 279 285 286 283 285 283 287 289 287 290 290 291 292 292 296 298 296 297 295 296 297 296 293 295 292 290 293 293 290 288 289 290 286 283 287 291 290 285 283 285 283 282 285 289 291 293 294 295 295 296 296 296 297 297 296 295 296 298 299 298 297 297 297 297 298 298 298 299 299 299 299 300 300 300 300 300 300 299 299 299 298 298 299
291 290 290 289 284 287 288 283 285 288 290 291 292 293 293 295 296 296 296 298 298 299 299 299 298 297 293 292 291 291 292 293 288 288 290 286 284 285 289 286 281 283 280 280 282 284 287 291 294 295 296 295 296 297 297 297 297 297 296 296 297 297 298 298 298 298 298 299 299 299 299 299 299 299 300 300 301 301 300 301 301 300 299 299 299 299 299
288 291 289 282 281 286 283 287 293 292 292 293 293 294 294 295 294 294 296 297 300 299 297 296 293 294 292 295 296 290 291 292 288 287 289 287 288 285 283 282 282 285 285 284 285 288 291 293 295 296 296 296 297 297 297 297 297 297 297 297 297 297 298 298 298 299 299 299 299 299 299 299 299 299 299 299 300 301 301 300 300 300 300 299 299 299 299
293 289 286 286 287 288 288 291 291 289 291 292 292 293 293 293 293 296 296 298 297 298 298 296 293 292 289 292 290 289 286 290 285 284 287 286 283 279 280 279 281 280 286 288 289 290 293 296 297 298 297 297 297 297 297 298 298 298 297 297 297 298 299 299 299 299 300 300 299 299 299 299 299 298 299 299 299 300 300 301 301 301 300 299 299 298 298
291 290 289 288 287 288 291 292 290 288 291 291 291 291 293 293 293 295 297 296 299 298 296 295 295 292 290 289 286 288 287 290 288 287 285 283 284 284 284 280 282 284 287 289 290 292 296 297 299 298 298 297 297 297 298 298 297 298 299 299 299 299 299 299 299 300 300 300 300 299 300 300 299 298 298 299 299 300 301 301 300 300 300 299 299 299 298
292 290 291 295 289 288 289 285 286 286 288 289 290 291 292 292 294 294 298 298 297 295 293 290 291 290 288 287 286 282 285 290 287 285 285 284 287 285 283 282 286 289 291 294 295 296 297 298 298 298 298 298 298 298 298 298 299 299 299 300 300 300 300 300 300 300 301 300 301 295 300 300 299 299 300 300 300 300 300 299 300 300 300 299 299 299 299
289 287 288 292 294 293 292 292 291 291 291 293 292 294 293 292 294 296 298 297 295 292 290 293 291 288 285 284 286 289 290 288 285 286 284 287 288 285 285 287 290 293 295 294 295 296 296 298 299 299 299 298 298 299 299 299 299 299 300 300 300 300 300 300 300 301 301 301 301 301 300 301 300 300 300 300 300 299 297 297 299 300 300 300 300 300 300
Wind_Speed
12 10 9 9 9 8 7 8 6 6 7 5 2 1 2 1 2 4 8 11 10 6 7 7 7 9 8 8 7 3 4 4 2 2 4 7 6 6 7 4 3 6 6 16 13 15 11 14 12 10 12 12 2 15 15 13 16 14 11 12 4 3 5 11 9 7 7 6 4 3 1 5 6 2 5 14 14 12 11 8 10 8 6 7 4 4 6
12 10 10 10 9 8 8 8 8 7 5 4 3 4 2 3 5 6 8 9 4 6 7 8 8 9 9 8 4 2 2 3 3 6 6 3 5 5 4 4 6 5 6 9 15 15 6 5 12 10 11 7 5 10 12 14 12 16 10 8 10 5 6 10 9 8 7 5 7 6 6 7 8 8 2 3 1 3 2 2 7 6 10 8 7 7 5
12 11 11 12 11 10 8 8 7 5 4 2 2 1 1 2 5 6 7 6 5 4 1 5 7 9 8 6 7 4 3 4 6 6 9 5 8 7 6 5 4 5 6 10 14 15 8 9 6 9 8 6 5 7 10 14 12 9 5 4 10 5 1 5 14 15 14 14 13 14 11 11 5 3 4 3 5 11 9 7 7 6 5 5 7 5 9
14 13 13 12 12 12 11 10 8 7 4 2 1 1 3 4 4 4 5 5 5 6 5 5 5 7 4 3 1 1 3 1 4 8 11 11 11 10 10 10 9 8 9 13 14 17 12 9 6 10 8 8 5 6 10 7 7 10 7 8 8 2 4 7 3 9 10 3 4 6 4 8 7 5 4 4 3 3 4 5 6 7 7 7 2 12 16
14 14 14 13 14 13 12 10 7 5 4 4 3 3 3 4 3 5 5 5 5 4 3 4 5 3 1 2 2 1 3 5 8 5 5 2 3 6 7 7 5 8 12 13 15 15 16 11 11 9 11 7 7 10 9 7 10 13 8 5 6 5 5 6 8 12 9 5 6 3 3 9 9 8 6 4 2 1 4 6 3 6 8 5 6 18 19
15 15 14 14 13 14 12 11 8 7 7 4 3 3 2 2 2 1 2 2 4 5 3 2 4 5 2 2 4 3 5 5 5 6 8 3 1 2 3 9 11 10 12 12 7 12 10 12 8 11 9 12 12 11 9 7 8 9 8 4 6 6 3 4 8 10 10 9 9 10 12 11 11 11 8 7 4 3 4 4 4 3 4 3 15 15 16
15 15 15 14 14 13 11 10 8 7 7 5 4 4 1 2 2 1 1 2 2 1 7 9 6 6 4 2 2 5 7 10 10 8 4 3 2 5 2 7 11 13 14 11 9 15 10 6 10 10 12 13 12 10 9 7 10 9 9 5 3 4 5 7 9 13 11 10 9 10 14 13 15 13 12 11 11 11 11 9 6 8 11 15 17 16 16
15 15 14 14 15 14 13 12 10 9 8 4 4 2 2 2 1 3 2 1 4 6 5 4 6 1 5 2 6 7 9 8 4 2 3 2 3 5 8 7 10 13 14 14 12 11 12 12 9 9 12 9 9 9 5 9 7 9 7 6 1 0 5 9 8 11 10 9 9 10 11 14 16 12 12 12 12 14 13 14 15 19 17 17 20 19 14
15 15 15 15 15 15 15 14 10 10 9 3 2 2 2 3 3 4 2 5 4 6 5 3 5 4 6 6 6 7 9 7 3 1 3 5 5 8 5 7 9 11 14 7 7 6 9 9 9 8 6 7 3 0 6 8 10 11 7 4 4 5 7 7 4 7 6 6 8 11 14 16 17 13 12 9 7 9 7 5 4 5 15 17 17 12 9
14 14 14 16 16 16 15 14 12 12 12 2 3 3 3 2 6 4 3 2 2 3 4 4 4 4 7 7 7 5 7 5 2 3 1 1 3 4 6 4 9 8 11 10 8 8 15 14 13 13 13 12 9 9 9 4 8 7 6 4 6 6 10 7 5 6 6 8 9 10 11 9 7 8 7 8 11 11 10 10 9 11 16 14 8 7 12
15 15 15 15 15 14 14 14 13 11 8 4 4 2 4 5 3 2 2 1 1 3 4 4 5 2 2 5 11 9 9 5 8 5 3 4 4 10 11 2 11 8 9 7 8 14 17 13 13 10 14 16 15 10 10 14 10 6 6 4 4 10 12 7 7 3 7 10 8 4 4 9 4 4 4 4 5 7 11 11 10 8 3 4 9 15 15
16 15 15 14 13 13 12 12 12 7 5 3 2 3 3 4 4 2 2 1 2 2 2 2 4 4 7 9 6 4 6 11 11 9 11 8 7 4 6 13 16 6 2 3 5 9 16 15 18 17 17 16 17 15 16 13 9 3 2 7 8 10 7 5 4 6 9 9 7 5 8 3 3 1 4 5 8 13 15 13 10 8 12 17 19 18 15
16 16 15 14 14 14 12 12 10 9 6 5 3 4 3 3 3 2 1 2 1 1 2 3 4 6 6 4 2 5 8 10 11 11 11 10 10 9 7 5 15 10 5 1 3 4 11 8 9 14 16 17 16 17 17 14 10 7 5 6 10 7 6 6 4 5 7 7 6 7 3 3 3 3 6 8 10 13 15 14 11 9 11 16 18 16 16
17 17 16 15 15 14 13 12 11 8 6 6 4 4 3 3 3 1 1 0 1 3 5 4 2 2 1 1 1 5 9 12 12 11 11 9 13 13 12 10 9 8 5 2 1 11 7 6 5 8 11 11 10 9 9 12 13 10 8 5 4 10 7 5 8 2 5 3 4 5 5 5 3 5 5 6 6 8 3 6 5 6 8 12 17 17 17
17 17 16 16 15 15 14 13 11 9 6 7 5 4 3 3 3 2 1 1 0 1 2 1 3 2 1 1 2 6 6 7 8 9 9 8 10 7 6 5 3 3 4 4 5 8 8 6 7 8 8 9 7 4 3 4 5 11 7 6 4 2 4 6 6 1 3 7 8 6 5 6 7 4 6 2 4 5 6 10 6 5 8 11 16 18 17
18 17 17 16 16 15 15 14 12 10 6 5 5 4 3 4 3 2 2 2 3 1 3 5 5 5 2 4 6 6 4 3 6 6 7 8 8 8 7 4 3 3 4 2 1 2 2 4 6 8 5 3 2 7 3 5 4 5 6 6 7 7 5 3 3 6 6 7 6 5 7 2 5 10 8 6 3 4 5 5 5 6 11 12 14 16 16
18 18 18 17 17 16 15 14 13 11 7 5 4 3 2 4 5 4 2 2 3 3 3 5 5 6 3 5 3 6 6 3 4 2 4 5 6 5 6 4 4 3 1 1 2 2 3 3 3 5 4 1 2 5 7 3 5 4 6 8 9 7 3 3 5 5 5 5 6 5 3 3 6 10 8 7 4 2 5 6 7 11 13 14 15 16 16
19 19 18 18 17 16 16 15 14 11 6 3 5 2 2 4 5 3 3 3 1 5 6 6 6 4 6 5 4 2 3 1 3 4 4 3 3 4 4 2 2 4 5 2 1 3 3 3 3 4 4 3 1 4 3 5 5 3 4 2 3 4 3 0 5 5 5 4 4 5 4 2 8 9 7 5 3 4 6 4 8 15 15 14 14 15 14
20 19 18 18 17 16 16 15 14 10 4 5 5 3 2 4 4 4 3 4 3 3 6 5 4 6 3 2 3 2 3 3 4 2 2 2 4 4 4 2 4 1 3 2 2 2 2 2 1 2 4 3 1 2 2 3 4 2 3 6 6 4 2 1 2 5 5 5 3 4 6 4 8 5 6 6 4 4 2 6 13 17 16 14 14 15 12
19 19 19 19 17 16 16 15 17 15 6 6 4 2 4 2 4 4 3 3 4 7 7 8 8 10 7 7 5 3 1 3 4 3 2 3 1 4 3 3 3 0 2 2 2 2 0 3 3 0 4 6 4 3 5 4 2 3 3 4 1 2 1 5 4 1 2 2 4 4 3 4 9 10 7 1 3 5 7 12 14 14 15 16 15 14 13
20 19 18 18 18 18 17 19 20 17 8 4 5 2 3 2 3 5 4 4 5 3 5 6 8 11 10 11 9 8 8 7 7 5 6 5 2 2 3 1 3 0 1 0 1 2 1 3 3 2 4 2 5 3 5 6 5 3 4 3 4 4 1 3 2 2 3 6 4 2 4 11 10 9 4 6 6 7 10 12 13 12 13 14 14 13 12
21 21 21 20 19 18 17 16 16 17 9 2 3 3 2 2 2 3 2 3 3 4 3 3 3 5 7 8 7 7 7 8 7 6 5 2 1 3 3 3 4 2 2 0 4 2 1 3 2 2 4 4 2 2 7 6 4 4 2 3 2 6 4 5 2 2 2 3 4 4 3 9 6 4 7 7 7 8 9 11 14 14 13 14 14 14 13
21 22 22 22 22 21 20 18 17 15 9 1 4 2 2 3 2 3 4 3 3 2 1 2 3 2 2 4 6 6 5 4 6 5 5 4 1 0 2 1 3 3 1 3 3 1 4 5 2 3 5 3 4 6 1 1 4 5 3 5 5 4 5 6 9 7 10 10 8 7 7 8 8 7 7 10 9 8 10 12 12 12 14 13 14 15 14
21 21 21 21 21 21 20 18 17 14 11 3 4 3 1 2 4 4 3 3 1 4 7 10 5 6 10 11 12 7 7 8 7 5 4 3 2 2 2 2 2 3 2 3 4 1 4 2 3 1 3 3 2 5 4 4 3 7 7 5 3 4 1 1 5 11 5 4 4 7 8 8 9 10 9 8 7 10 10 11 11 13 14 14 14 14 15
21 21 20 20 20 20 20 19 18 15 12 6 2 1 1 3 4 4 3 1 1 1 4 5 9 8 7 4 7 6 8 8 4 2 1 3 5 5 3 5 3 4 5 4 2 4 2 2 4 2 4 2 5 3 4 4 4 5 3 4 5 5 3 6 7 5 1 7 8 7 8 8 8 9 9 10 9 10 10 11 12 13 14 16 15 15 15
23 22 21 20 20 20 19 18 15 15 14 10 6 2 3 3 1 2 4 2 1 2 3 5 8 9 7 8 11 8 9 8 6 8 9 8 6 6 10 6 7 5 5 2 1 2 3 3 3 3 6 3 5 1 3 7 8 4 2 6 3 6 7 4 6 6 9 10 8 9 10 9 7 7 8 9 9 12 14 15 16 16 17 16 14 14 15
23 22 22 21 20 20 20 17 13 13 13 12 3 0 1 2 0 2 4 4 0 4 3 5 4 8 11 14 10 8 9 8 8 10 11 11 10 8 8 8 8 6 5 6 4 3 3 4 4 6 5 5 3 7 6 8 7 6 5 5 5 8 6 9 9 10 8 9 11 15 9 6 8 8 10 11 12 14 16 16 17 18 17 15 16 16 16
22 21 21 20 19 19 19 18 15 13 11 9 5 1 0 1 1 2 2 2 4 2 4 4 4 5 5 14 11 9 10 8 9 10 10 11 10 8 7 6 5 4 4 3 4 3 3 5 7 3 4 6 5 5 5 7 7 6 6 7 4 3 9 8 5 4 5 10 17 12 4 12 11 11 11 13 13 14 16 16 17 17 17 18 19 19 19
21 22 21 20 20 19 18 17 18 15 11 5 3 2 2 0 1 5 6 2 4 6 5 6 6 5 2 5 6 9 11 11 12 12 11 12 12 11 10 9 8 7 8 7 6 6 6 6 3 3 3 3 2 7 7 5 5 6 6 5 3 3 4 5 8 5 8 14 14 7 9 13 13 14 14 13 13 14 16 16 17 18 19 19 19 19 19
21 21 21 20 19 19 19 18 20 18 13 2 3 4 2 4 2 5 8 6 5 3 3 3 5 3 1 2 8 8 9 11 13 15 14 12 11 10 9 9 9 7 7 4 5 8 6 4 3 5 4 5 0 3 3 5 5 5 5 5 3 4 4 5 1 2 11 14 10 9 15 16 15 14 14 14 14 15 16 17 18 19 19 19 19 17 16
22 21 21 20 19 18 17 16 18 21 14 3 4 1 0 2 4 6 10 7 4 2 4 4 6 3 4 3 3 7 7 7 9 10 10 10 10 9 8 8 8 7 7 6 6 6 2 4 3 3 2 6 3 4 6 6 6 7 5 4 5 7 6 5 4 10 15 12 13 16 17 17 15 15 15 15 16 17 17 17 18 17 19 18 17 16 14
22 21 20 19 18 17 15 15 16 15 6 7 4 3 3 4 5 9 10 7 5 2 5 6 3 3 3 2 3 4 3 2 1 6 6 5 8 8 10 9 7 8 6 6 5 4 5 3 3 5 4 2 5 6 6 6 7 7 7 7 7 7 7 9 12 14 14 16 19 19 17 16 15 15 15 17 17 18 19 19 19 18 17 16 15 14 14
22 21 20 18 17 16 14 13 12 7 3 2 3 1 6 4 6 7 6 5 1 3 3 1 3 2 1 5 1 3 6 2 5 4 7 6 4 3 5 4 5 6 7 2 3 3 1 3 4 6 6 1 3 5 7 7 8 7 8 8 8 9 11 13 15 15 15 15 14 16 17 17 17 17 18 18 18 18 19 19 18 16 15 15 15 13 12
22 21 19 17 17 15 13 12 7 2 5 3 2 2 2 6 9 7 6 2 3 1 1 1 2 3 4 3 3 4 6 2 5 3 5 5 4 2 4 5 6 4 6 6 3 4 2 3 5 5 4 4 3 5 7 7 9 9 9 10 12 13 14 15 15 15 14 13 13 15 17 18 18 18 18 18 19 17 16 16 16 17 16 15 14 13 12
21 20 18 17 15 12 12 9 3 2 2 1 0 2 6 15 12 8 4 2 1 1 1 1 1 5 4 2 2 4 4 3 5 4 4 4 4 5 4 3 2 4 2 3 3 3 3 3 4 1 4 2 2 4 5 10 11 11 11 13 14 15 16 17 16 14 14 15 16 16 18 20 21 19 19 19 17 16 17 17 17 17 15 14 13 13 11
21 18 16 15 14 10 4 5 1 3 2 1 2 9 15 15 11 3 2 2 3 1 1 2 2 2 2 4 3 2 3 5 2 1 4 0 4 4 3 4 7 5 2 2 5 4 3 3 3 4 0 2 4 4 8 11 13 12 13 14 14 14 14 17 17 17 17 17 18 19 19 18 19 19 17 17 17 17 16 17 16 15 14 13 13 12 10
20 17 16 12 6 3 2 0 1 1 3 5 12 17 19 12 4 4 3 2 3 3 1 3 2 2 2 3 2 2 3 3 1 2 3 3 3 1 2 3 5 0 1 4 4 4 4 4 1 5 4 5 5 9 10 10 12 13 13 13 12 12 14 15 17 19 20 20 20 18 17 18 17 15 16 16 16 16 16 16 15 15 14 14 12 11 9
18 13 4 3 3 2 1 1 1 4 9 12 9 5 1 1 1 1 0 1 2 2 1 2 2 3 1 2 3 2 3 3 3 1 2 0 1 3 1 2 1 1 3 3 4 2 1 3 4 6 6 7 8 9 9 10 11 12 12 12 12 12 13 15 17 19 20 21 19 18 18 17 16 16 15 16 16 16 14 13 12 12 11 11 11 10 9
10 3 2 1 2 1 0 3 5 10 6 4 3 2 1 1 1 1 1 0 1 2 1 2 3 2 3 3 5 2 3 0 2 1 1 2 1 3 1 1 1 0 3 2 3 3 2 3 4 5 6 6 7 8 7 10 10 9 10 11 12 13 14 15 16 17 16 14 16 17 16 16 18 17 15 15 14 13 13 12 11 10 10 9 9 8 8
3 1 1 1 1 3 4 5 7 5 3 1 0 1 1 0 1 2 0 1 1 1 1 2 2 1 3 0 4 3 1 3 1 3 3 3 2 1 1 1 1 0 2 2 3 3 1 3 1 3 6 6 8 8 8 10 10 10 11 12 14 14 15 15 15 13 13 14 15 15 15 15 15 15 15 14 13 13 11 11 10 9 8 8 6 8 8
5 4 2 1 4 5 5 8 5 2 1 2 1 0 0 1 1 1 1 1 0 2 2 2 4 3 2 2 2 3 2 2 2 2 1 3 1 2 1 2 0 1 1 2 1 0 1 2 2 2 5 7 10 10 10 10 11 11 12 13 14 13 16 15 15 14 15 15 14 14 15 15 15 14 13 13 12 12 11 10 9 9 8 8 7 7 6
6 6 5 7 7 6 5 2 1 0 1 1 1 0 1 1 0 1 1 2 2 2 4 3 5 5 5 1 3 2 3 2 1 1 1 2 1 1 3 1 1 1 2 2 1 1 1 2 3 4 6 10 12 11 11 12 12 13 14 14 14 14 15 15 15 14 15 15 14 14 14 15 15 13 13 13 11 11 11 10 9 8 8 7 6 6 6
7 6 4 4 3 1 1 1 1 1 1 2 1 1 1 2 1 1 2 1 0 2 3 2 3 4 3 2 3 4 2 0 1 1 0 2 1 1 1 1 1 1 2 2 1 1 1 2 3 5 9 11 13 12 11 12 13 13 14 14 13 14 15 15 15 16 16 15 14 13 12 14 13 12 11 11 10 10 9 8 8 8 7 7 7 6 6
1 2 2 2 1 1 1 1 0 0 0 0 2 3 3 3 3 2 2 3 4 2 5 6 6 7 4 0 0 3 2 2 0 1 2 0 1 1 0 1 2 2 1 2 1 2 1 1 1 8 11 12 11 13 13 14 14 14 14 14 14 15 15 16 15 15 16 14 13 12 12 11 11 10 9 9 10 10 9 7 6 6 8 8 7 6 6
2 2 1 1 0 0 0 0 0 1 3 4 2 3 3 5 4 4 1 3 3 4 7 4 7 6 4 3 0 1 2 2 1 1 2 1 1 1 0 2 2 2 1 2 1 1 0 3 4 9 14 14 14 15 14 14 14 15 15 15 15 15 16 17 17 15 13 11 12 12 12 12 11 10 10 9 9 9 9 9 7 8 9 8 7 7 6
2 0 2 2 1 2 1 0 1 2 2 1 3 4 5 4 3 5 4 1 2 5 7 7 6 5 4 1 1 2 2 2 2 1 0 1 1 2 2 1 1 1 0 1 2 3 2 3 7 11 15 16 16 16 15 15 15 15 16 16 15 15 15 15 15 15 14 13 12 12 11 11 11 10 10 10 9 9 8 8 9 10 9 8 7 7 8
1 1 1 0 1 1 0 2 3 1 1 4 4 4 3 2 2 3 3 1 2 3 4 4 3 3 5 3 2 2 1 0 1 1 1 1 2 2 0 1 1 2 2 3 2 2 2 4 8 11 15 16 16 16 16 16 16 17 16 15 15 15 16 15 15 15 14 14 13 12 11 12 11 11 9 9 9 8 9 9 10 10 10 8 8 7 8
1 0 1 2 3 2 4 3 0 0 2 2 1 2 1 2 3 4 3 1 0 3 6 6 5 4 3 1 3 1 3 1 2 1 0 2 2 1 1 1 2 2 2 2 2 2 1 5 8 11 15 16 17 17 17 16 17 18 18 18 18 17 16 16 15 15 14 13 13 12 11 11 11 9 9 9 9 9 9 10 10 10 9 8 7 7 8
2 1 1 1 0 1 1 2 2 5 3 3 1 1 2 4 5 2 3 2 3 5 4 6 4 4 2 1 2 3 3 2 2 2 1 2 2 3 2 2 3 3 3 3 1 1 2 4 8 12 15 17 17 16 16 16 16 17 18 18 18 17 17 16 15 14 13 12 12 11 11 10 10 10 9 9 10 10 10 10 11 10 9 8 8 8 8
2 2 1 2 2 2 1 1 4 4 5 4 4 4 3 3 3 2 3 3 3 4 3 1 0 1 2 2 2 2 2 2 1 2 3 3 2 2 2 2 3 2 2 3 1 1 3 4 7 12 15 17 17 17 17 16 16 16 16 16 16 15 15 16 16 14 13 12 12 12 11 9 9 10 10 11 11 10 10 10 11 11 10 9 9 9 8
1 2 2 2 3 1 5 4 4 5 4 5 5 4 4 4 4 2 3 2 5 5 4 5 4 2 3 2 2 3 2 2 2 4 3 3 2 3 4 4 3 3 1 3 2 2 3 5 6 10 14 16 16 18 17 17 16 16 16 16 15 14 14 15 15 13 13 12 12 11 11 10 10 11 10 11 11 11 11 10 10 10 10 9 9 9 8
1 3 4 4 5 3 3 2 2 3 1 0 2 2 1 2 1 2 2 4 5 6 7 3 4 3 2 3 3 2 2 2 1 1 3 2 2 3 4 4 3 1 2 3 3 3 3 4 5 10 13 15 16 17 17 16 16 15 16 15 14 14 14 13 13 12 11 10 10 10 10 11 11 10 10 12 11 12 12 11 9 9 9 9 9 8 8
Wind_Direction
12 10 7 0 355 353 345 341 341 338 344 318 47 350 231 278 46 89 152 159 178 219 219 188 196 214 219 227 227 279 262 303 10 304 252 277 249 260 236 261 257 225 244 188 176 185 179 180 187 176 181 169 134 152 172 186 175 189 181 195 132 146 206 178 170 132 90 106 128 139 20 213 192 184 238 190 201 198 207 218 165 192 154 203 189 205 117
10 8 8 4 355 350 344 337 333 334 347 330 316 242 194 214 132 121 142 166 244 252 198 178 196 208 217 227 228 90 311 302 239 223 246 235 274 274 298 284 256 214 215 199 183 165 144 174 188 183 172 142 98 161 167 177 183 194 164 194 150 192 192 184 171 172 166 161 165 161 169 203 210 188 110 352 147 224 137 71 166 215 190 215 199 197 146
7 10 12 11 10 6 354 353 354 348 3 341 317 250 149 225 98 113 158 198 268 246 291 208 185 201 209 214 226 245 222 231 266 279 274 266 261 278 254 256 340 283 208 203 182 169 170 149 153 160 175 127 144 156 172 187 193 194 147 207 157 218 79 225 184 180 183 180 185 186 177 180 121 96 125 33 229 190 195 205 194 221 157 195 221 92 100
6 6 7 8 2 359 360 357 352 353 355 171 322 291 253 187 131 144 176 209 227 260 249 283 235 195 195 208 189 259 236 258 274 273 277 269 262 257 277 284 273 266 218 190 180 177 168 166 160 165 153 134 122 150 161 176 189 113 95 142 145 94 78 35 340 218 189 156 107 22 124 136 163 108 119 125 33 13 273 232 198 220 158 196 36 133 137
5 4 5 2 359 352 353 352 344 347 342 205 228 233 276 313 141 163 173 186 219 243 232 227 230 215 235 235 60 268 266 296 304 251 248 59 325 277 249 255 242 224 200 180 179 176 176 173 171 165 147 120 116 140 152 140 116 116 106 122 127 144 94 44 63 62 69 77 72 80 156 120 110 128 102 110 94 21 236 217 242 120 161 182 95 136 139
360 0 359 357 354 351 351 354 347 354 337 197 203 256 212 206 112 149 26 271 168 192 194 202 85 52 347 41 8 294 297 282 271 298 274 297 85 277 231 235 243 210 177 164 151 159 163 172 161 136 131 130 131 129 146 151 142 160 137 179 194 140 109 91 91 84 77 71 89 94 90 86 88 83 86 82 85 153 102 68 14 259 243 176 136 141 133
360 358 356 356 356 358 358 0 359 347 337 234 246 290 143 285 104 28 138 227 98 249 110 90 57 33 73 338 283 279 271 271 261 251 291 267 203 228 260 227 206 177 184 183 160 160 162 160 149 147 149 145 146 137 128 125 162 159 127 100 76 103 78 119 108 98 81 78 92 102 100 95 78 68 69 72 77 75 85 80 72 83 90 113 130 125 117
359 358 358 2 3 1 4 5 357 351 330 247 254 341 298 101 238 127 197 306 95 93 74 79 105 215 200 228 235 246 261 279 319 195 223 246 259 190 237 224 188 168 189 178 166 162 169 149 147 150 139 136 161 148 150 144 160 160 131 132 93 275 134 145 113 90 79 82 95 101 103 97 84 64 63 75 82 81 77 83 85 92 95 103 106 106 98
359 357 358 359 359 359 3 4 2 343 337 232 290 22 341 345 338 319 286 107 84 75 83 122 152 200 214 241 262 256 248 242 132 303 260 273 244 191 189 162 137 159 156 147 87 36 96 109 119 114 146 141 42 267 126 153 147 150 130 128 119 121 136 181 166 109 101 115 102 106 98 92 86 68 55 52 56 72 54 64 40 100 127 123 118 113 122
358 356 354 356 357 357 0 5 2 351 317 293 326 3 3 257 216 258 315 106 76 121 190 204 186 226 224 236 262 257 269 285 187 125 260 59 336 312 307 278 131 103 87 57 39 77 87 86 81 85 83 82 82 63 63 47 153 144 106 127 141 132 144 170 177 104 130 143 142 129 137 124 102 44 29 45 88 87 81 77 87 108 128 133 153 144 132
4 1 360 357 358 355 356 358 0 353 345 42 348 347 346 360 11 326 295 110 166 201 193 190 228 296 307 240 273 270 277 265 186 187 112 102 9 295 283 219 95 73 70 77 51 82 92 101 100 89 72 68 62 46 60 50 37 81 122 116 114 136 147 157 163 125 144 166 151 189 186 188 117 44 359 328 72 105 97 91 95 89 70 63 90 125 129
1 1 358 358 356 353 350 348 348 357 334 0 336 306 324 326 299 287 305 219 147 196 219 229 246 281 277 306 302 336 47 56 59 90 117 122 133 139 102 94 94 76 125 9 56 83 99 100 102 93 87 79 69 57 59 54 35 35 165 135 138 143 139 117 123 125 149 156 175 184 196 127 69 123 75 88 93 101 94 77 72 88 98 102 110 122 126
358 358 354 352 352 349 345 341 336 338 326 309 285 302 313 318 316 350 334 295 101 183 213 251 272 274 284 281 328 45 58 72 71 70 67 74 75 58 26 80 104 136 164 123 358 90 86 63 71 88 97 91 89 75 58 57 44 39 65 135 140 142 136 121 88 113 119 158 184 194 114 48 114 117 114 104 110 117 101 74 58 75 106 117 117 120 121
353 353 351 345 344 343 339 337 331 326 320 304 285 287 301 294 283 258 282 291 138 245 269 276 206 142 180 285 45 91 87 73 68 58 63 44 70 62 51 45 75 130 184 232 125 89 83 141 132 147 145 138 119 81 70 64 43 45 60 80 143 140 124 131 114 147 150 124 77 69 137 128 105 134 160 161 146 167 153 116 75 87 117 127 123 123 123
349 347 343 339 340 343 336 337 332 324 315 285 275 265 263 262 251 292 76 284 138 170 281 15 34 20 309 234 228 115 78 83 73 68 72 72 67 53 73 97 129 187 182 241 165 166 164 161 147 146 147 163 156 126 146 55 57 37 40 61 71 148 163 135 123 146 152 145 129 141 164 204 186 197 147 39 38 25 105 107 99 109 126 135 133 132 132
345 343 338 338 339 338 333 337 334 328 311 274 257 249 249 240 217 226 238 283 302 88 34 354 305 281 331 60 28 56 81 82 93 105 91 73 83 108 85 113 147 197 212 240 49 99 127 155 145 155 147 116 72 130 121 136 110 58 53 72 82 69 85 141 159 141 170 176 171 173 187 102 101 154 150 146 181 167 162 138 106 145 147 145 139 135 138
345 341 338 337 337 334 329 332 334 332 319 264 249 243 243 182 190 198 224 234 252 55 348 341 313 281 271 92 88 51 14 40 354 103 114 80 46 65 95 104 154 201 275 174 75 152 123 101 75 90 85 35 185 116 130 117 120 110 98 94 81 92 101 120 123 148 167 174 198 178 52 119 165 139 143 149 123 174 202 195 171 161 155 149 145 140 143
343 338 335 335 334 332 328 334 334 329 305 205 231 201 195 178 210 210 250 272 286 78 28 3 333 344 44 5 21 37 300 190 116 66 71 92 77 36 26 343 133 94 304 51 31 95 83 107 133 142 104 39 8 228 141 108 99 92 109 53 105 95 76 19 147 155 140 162 107 93 109 69 123 135 144 134 186 206 203 217 126 152 151 153 146 142 142
341 337 333 333 332 329 330 340 350 352 344 210 198 177 196 188 187 229 292 256 264 69 33 31 348 36 12 309 26 2 0 341 323 119 120 131 61 27 341 50 298 78 1 82 56 66 111 80 11 57 127 138 253 77 68 123 87 92 159 131 112 86 98 52 124 147 167 163 158 106 77 129 144 137 161 144 187 198 136 73 130 140 144 144 141 139 141
340 338 334 332 333 333 337 341 2 13 20 164 206 66 74 150 185 211 287 332 37 78 44 35 18 45 29 19 28 32 18 166 4 48 44 97 86 283 200 164 150 57 116 105 88 348 150 124 79 25 148 134 72 107 87 80 17 45 40 344 333 66 212 147 131 76 69 183 137 168 174 154 180 149 154 123 277 76 112 124 127 137 136 140 139 136 140
339 337 336 335 336 341 350 353 1 10 24 167 210 148 124 134 196 214 251 305 305 80 75 40 44 50 37 39 25 7 356 12 351 21 59 57 36 293 199 144 91 132 71 318 171 124 20 128 120 77 29 42 125 223 131 124 111 107 320 36 50 343 241 120 92 334 176 167 166 117 46 134 159 171 150 142 61 119 125 131 128 132 138 139 137 134 132
342 339 339 339 341 346 351 354 359 7 14 128 225 248 117 106 172 220 223 274 299 42 55 27 2 50 59 47 39 16 4 349 354 333 333 64 42 341 19 90 54 19 64 348 108 91 180 77 106 145 147 116 193 125 144 166 139 117 137 264 171 17 10 349 128 62 353 37 71 113 139 116 110 71 78 90 135 124 125 128 137 140 141 142 136 130 128
343 341 340 340 343 346 347 349 355 9 26 146 236 300 41 141 155 171 221 246 207 225 180 148 212 113 130 94 38 18 6 349 323 312 304 316 148 354 7 19 100 41 82 325 309 77 133 162 128 113 109 92 123 129 115 350 111 152 132 28 73 83 70 94 86 92 102 74 79 105 114 111 98 77 94 113 115 114 125 131 137 138 137 140 135 131 126
343 342 340 339 340 341 342 343 349 358 15 28 270 308 101 114 137 167 202 255 284 108 71 35 42 18 357 352 353 357 9 5 352 318 326 302 300 141 153 69 90 159 79 33 321 8 102 58 91 240 125 97 199 163 170 143 99 113 110 127 99 86 301 235 109 146 178 91 113 107 109 119 111 106 103 101 115 121 129 130 131 134 136 131 134 127 131
341 340 339 338 338 339 339 341 342 347 357 7 230 217 192 147 181 233 282 295 79 69 84 54 41 6 358 340 359 10 10 345 346 0 247 236 288 315 79 70 14 352 100 90 204 131 133 134 155 155 118 92 301 120 33 120 130 190 128 110 151 129 189 98 119 126 27 121 122 112 103 103 121 127 121 118 121 122 119 125 128 131 130 132 127 128 132
339 338 338 337 336 333 333 336 336 339 343 346 299 322 34 35 104 223 262 273 12 19 84 69 56 35 35 41 30 13 339 355 34 51 54 54 49 74 114 123 101 74 96 84 86 99 97 93 98 101 125 119 292 82 79 17 119 167 185 132 12 113 178 140 146 106 88 95 108 122 110 101 114 126 123 127 133 127 126 128 129 127 129 128 130 133 136
336 336 335 335 332 329 329 328 331 338 333 329 298 252 49 79 119 297 319 316 105 104 86 84 77 58 48 48 31 17 16 29 49 57 56 58 73 86 95 104 108 114 103 88 57 84 78 80 76 72 73 91 81 85 117 118 121 134 124 120 151 165 152 125 126 126 152 164 167 156 140 152 146 137 136 134 135 132 128 129 129 129 130 131 134 135 135
333 332 331 330 329 328 325 324 326 337 331 309 271 234 160 35 65 51 346 316 300 99 119 117 96 93 65 45 24 31 31 46 58 65 66 66 63 61 72 77 87 95 98 117 111 91 92 94 79 84 95 122 112 78 92 105 122 108 118 127 174 166 143 166 158 162 170 155 159 180 121 121 135 135 135 134 136 136 134 133 134 134 137 140 138 137 136
330 329 328 328 327 325 324 322 327 333 335 291 199 225 216 209 275 35 11 325 273 96 94 95 81 60 59 20 3 52 48 56 61 63 65 65 64 65 65 62 69 81 79 72 82 82 78 74 67 79 83 357 69 133 165 151 139 123 118 132 110 41 156 41 41 67 114 144 155 156 134 131 135 136 134 136 140 137 131 133 135 139 141 141 140 140 138
329 327 326 325 324 324 325 326 330 331 331 243 198 237 209 130 96 32 9 345 340 292 118 112 87 84 205 5 49 47 53 55 64 63 62 61 60 62 64 66 66 60 69 76 86 88 82 86 81 81 71 295 112 153 154 137 123 109 129 150 113 144 123 54 256 167 139 140 134 118 118 122 129 131 134 135 136 134 131 133 135 136 138 139 137 137 136
327 325 323 322 321 321 323 327 331 330 323 225 254 206 227 123 72 26 357 338 318 331 82 91 99 136 96 55 356 34 36 54 58 61 56 59 59 62 69 72 58 65 85 76 71 71 92 97 99 92 106 3 338 156 139 138 129 123 102 111 134 137 135 132 135 119 126 126 121 122 122 122 128 127 128 133 135 134 130 131 132 134 136 138 135 135 136
324 322 320 319 318 318 319 326 334 324 338 21 25 19 16 11 343 323 324 314 295 172 113 114 127 125 94 106 57 354 353 355 47 83 54 33 73 60 63 56 66 44 47 72 75 83 59 67 78 91 102 336 288 121 133 131 124 122 129 129 124 121 119 119 119 121 127 127 128 122 121 128 137 135 133 136 133 133 132 133 135 136 142 136 133 133 134
321 319 316 316 315 315 317 321 327 324 36 22 328 270 78 77 319 305 325 298 246 46 318 79 92 134 153 92 176 48 338 228 88 64 63 10 55 46 75 66 86 72 10 44 46 77 49 102 107 90 76 33 104 103 104 103 106 116 132 133 133 130 131 127 127 129 131 137 139 134 136 138 132 129 133 135 135 135 136 137 137 138 135 134 134 133 134
319 316 313 311 311 313 314 313 299 272 264 243 197 77 97 27 345 352 325 279 69 88 312 90 137 136 114 197 175 70 336 24 68 23 82 34 336 44 82 81 58 77 11 49 91 113 99 93 88 104 122 67 69 104 97 101 116 123 124 127 128 128 130 130 131 132 134 135 132 128 127 127 129 132 133 133 133 134 134 136 140 139 139 139 140 143 142
317 313 311 308 306 310 305 297 274 241 318 19 325 109 350 337 336 304 299 287 228 135 118 82 298 134 145 167 114 80 348 302 81 22 69 70 353 45 69 64 48 72 56 281 79 55 80 49 310 116 82 83 73 74 113 131 127 127 130 129 133 133 136 132 132 131 132 133 130 127 131 134 135 137 136 136 137 138 141 143 145 144 144 146 146 147 152
315 311 308 305 302 291 265 219 355 310 197 348 352 342 329 317 312 295 250 303 339 119 137 113 229 149 159 142 120 95 269 94 81 103 55 160 95 24 27 86 84 52 302 4 74 57 55 349 290 92 39 99 60 94 126 135 135 137 137 136 140 143 142 138 136 136 134 134 133 134 134 136 135 135 136 137 140 145 147 146 148 149 146 146 149 151 158
315 310 301 287 272 213 247 27 25 13 14 318 295 304 288 282 245 219 218 208 76 339 44 162 176 107 345 72 86 107 266 125 255 103 55 57 73 10 24 81 75 63 118 70 54 53 49 314 38 78 48 84 97 102 119 138 140 139 137 140 142 135 136 136 135 132 131 130 132 134 137 137 135 139 141 145 147 148 150 150 152 153 151 152 152 161 162
313 296 275 203 214 213 208 169 47 354 324 292 288 276 167 259 189 134 79 82 10 294 83 273 96 102 233 231 121 46 275 106 280 111 109 25 215 86 8 54 53 256 87 66 67 332 20 46 60 83 80 72 96 117 126 137 136 139 142 141 137 136 134 136 140 139 136 139 141 144 143 143 143 146 148 147 150 152 151 151 153 153 154 155 159 161 164
292 258 217 224 233 203 1 33 4 320 288 261 238 256 116 349 206 160 60 338 228 157 18 272 125 153 171 120 91 52 349 117 152 212 137 48 306 107 274 106 114 260 110 153 100 269 95 83 96 104 106 125 127 120 129 132 136 138 139 138 140 135 139 142 146 145 147 147 146 149 151 150 149 149 148 148 150 152 152 155 155 158 159 159 161 168 171
10 353 3 222 201 24 333 327 334 307 249 229 79 287 140 354 257 144 136 194 147 79 236 153 61 64 337 106 146 127 40 283 223 119 109 113 326 16 96 85 86 228 97 74 84 294 151 120 128 129 127 153 133 144 144 141 138 137 138 139 141 142 145 147 147 149 146 142 145 148 147 146 147 147 151 152 151 150 154 159 160 163 166 168 162 180 180
7 331 292 344 6 329 320 314 297 234 270 208 159 68 233 160 47 16 243 200 186 106 341 71 155 163 140 253 255 131 123 274 28 4 44 65 24 273 135 82 315 93 105 93 109 265 101 106 154 153 141 147 144 155 151 148 141 145 144 146 147 149 151 151 152 151 148 149 150 150 149 151 151 151 152 154 155 156 160 163 169 173 180 174 181 203 192
325 306 316 305 293 286 285 238 288 139 62 344 223 148 11 14 118 211 250 236 153 153 150 196 180 164 135 38 51 89 122 330 312 267 183 111 21 4 92 127 213 222 106 62 110 213 158 134 163 132 137 146 149 157 160 152 149 150 152 152 155 157 157 156 155 154 156 155 154 153 155 158 156 156 159 161 164 164 168 171 174 175 188 177 178 179 176
290 255 248 281 257 230 272 203 54 307 186 166 165 157 189 204 202 220 161 155 61 257 114 344 50 66 83 235 114 20 49 5 270 133 47 89 161 246 130 119 200 92 86 151 229 150 158 147 177 145 147 150 157 163 165 156 154 155 155 157 158 162 161 161 159 155 158 161 158 158 158 160 161 163 165 168 167 165 168 175 176 177 178 174 174 165 163
228 246 231 227 226 91 282 185 129 124 38 245 188 194 185 201 179 188 222 168 155 180 159 177 167 192 144 337 148 137 156 165 251 83 76 107 248 99 141 98 64 76 145 201 216 189 116 114 160 144 152 150 161 167 166 161 160 157 158 164 162 161 160 162 159 160 162 163 165 165 168 169 169 166 175 178 179 180 180 180 182 183 173 173 168 166 157
269 222 225 185 135 7 146 4 209 225 216 196 214 220 176 201 182 196 170 105 192 149 161 191 171 189 128 121 229 75 280 122 164 245 122 173 109 41 42 95 117 174 209 166 188 158 168 205 155 152 156 162 168 169 168 167 166 164 163 163 166 167 166 166 168 169 169 172 171 172 178 181 183 182 189 195 195 190 183 183 173 178 176 178 171 166 158
264 257 191 155 351 290 234 184 138 215 233 203 204 216 212 224 192 189 91 148 160 143 171 172 176 151 126 124 270 127 148 175 145 49 61 231 152 102 55 79 219 188 145 226 200 211 205 150 164 170 168 167 170 170 171 170 170 167 168 171 173 174 176 174 173 176 177 182 182 186 188 190 193 192 197 201 201 199 199 186 177 184 176 180 177 176 166
247 236 262 288 244 161 243 214 199 220 18 194 217 221 245 5 23 35 75 222 184 141 125 148 165 175 159 157 157 154 177 179 108 96 256 178 102 100 290 231 188 186 188 210 226 228 211 149 161 168 167 166 170 172 174 173 176 175 176 176 178 183 183 185 182 185 185 187 188 192 193 195 197 198 195 192 194 196 197 187 180 179 179 184 184 176 171
267 33 287 204 212 171 197 214 347 268 220 285 17 347 0 335 237 191 144 190 91 164 164 154 157 141 138 66 278 146 135 147 127 118 1 92 120 154 156 206 220 205 228 232 206 180 112 129 159 165 168 169 170 173 176 177 178 180 180 182 184 187 188 191 191 192 188 189 190 192 193 192 191 186 188 190 183 180 183 183 177 177 184 189 181 173 177
320 287 239 251 277 203 223 73 204 222 169 167 193 220 203 214 216 124 104 150 182 176 167 193 173 179 145 145 192 156 170 172 190 142 169 201 191 174 183 196 183 222 209 228 259 105 133 127 150 164 168 171 173 175 177 177 179 183 184 185 186 189 191 194 196 195 192 194 195 196 196 193 194 196 198 193 188 178 178 173 173 176 189 192 182 183 184
246 206 221 229 198 210 171 212 229 228 182 179 199 206 202 236 224 113 122 166 176 160 154 55 347 229 115 169 181 196 184 171 149 136 198 198 188 169 212 216 197 228 138 166 189 158 143 127 150 165 172 176 175 178 177 179 181 185 186 187 186 188 192 195 196 196 197 198 200 202 200 194 201 202 202 199 195 176 167 171 178 184 190 193 192 191 195
202 280 268 286 268 171 159 205 203 207 203 200 203 191 197 220 229 154 164 179 164 169 182 190 172 155 157 177 170 181 174 123 192 195 206 202 171 196 212 226 208 217 234 118 158 129 140 153 167 171 174 177 178 180 179 179 179 185 185 188 187 188 190 194 195 194 196 199 201 202 202 204 209 209 205 204 194 175 173 172 182 190 192 195 197 203 201
209 212 225 205 221 260 236 314 313 281 300 125 199 88 199 231 163 88 152 196 177 190 193 164 171 169 163 188 192 111 104 182 218 160 217 209 178 218 218 232 258 216 195 200 184 164 160 164 172 175 178 179 178 179 179 178 181 185 188 189 189 190 190 191 193 192 192 193 193 195 201 206 206 206 200 194 181 180 183 183 185 193 195 197 200 208 210